Погода в Славно

Польша     54°21′30″N   16°40′29″E
темп.,
°C
ветер,
м/с
пор.,
м/с
влажн.,
%
обл.,
%
осадки,
мм/ч
давл.,
гПа
погр.,
м
1 марта, пн
пн101:00+1зюз349729 0.0 103390
04:00+1зюз359829 0.0 103396
07:00+1зюз369829 0.0 1033149
10:00+5зюз468426 0.0 1033305
13:00+8зюз476913 0.0 1033434
16:00+8з59740 0.0 1032466
19:00+4з411870 0.0 1032298
22:00+3зюз410860 0.0 1032240
2 марта, вт
вт201:00+3зюз410900 0.0 1032247
04:00+3з512930 0.0 1031303
07:00+3з511920 0.0 1031292
10:00+6зсз59770 0.0 1031481
13:00+7зсз577322 0.0 1032548
16:00+6зсз357922 0.0 1031431
19:00+3зсз129511 0.0 103232
22:00+2ю119537 0.0 103322
3 марта, ср
ср301:00+2ю229563 0.0 103323
04:00+1ю2395100 0.0 103165
07:000ююз249560 0.0 1030100
10:00+5юз24760 0.0 1029264
13:00+9зюз34570 0.0 1027495
16:00+10юз25580 0.0 1023560
19:00+6юз34810 0.0 102195
22:00+5юз410870 0.0 1019237
4 марта, чт
чт401:00+4зюз411930 0.0 1016348
04:00+3з499610 0.0 1014306
07:00+3з489643 0.0 1013370
10:00+5зсз458299 0.0 1013619
13:00+5зсз357899 0.1 1013651
16:00+3сз2486100 0.1 1012421
19:000св61095100 0.7 1013479
22:000всв5994100 0.9 1013634
5 марта, пт
пт501:000св3883100 1.1 1014697
04:00−2ссв387968 0.0 1014317
07:00−2с128033 0.0 101653
10:00+2ссз566020 0.2 10181237
13:00+2с565630 0.5 10191426
16:00+1с56540 0.0 10201230
19:00−2сз22720 0.0 102256
22:00−2св359234 0.6 1024335